Time,TemperatureF,DewpointF,PressureIn,WindDirection,WindDirectionDegrees,WindSpeedMPH,WindSpeedGustMPH,Humidity,HourlyPrecipIn,Conditions,Clouds,dailyrainin,SoftwareType,DateUTC
2013-02-22 00:04:00,20.2,14.1,29.97,ESE,120,4.0,4.0,77,0.00,,,0.00,Wunderground v.1.15,2013-02-22 06:04:00,
2013-02-22 00:10:00,20.3,14.5,29.97,NE,47,4.0,4.0,78,0.00,,,0.00,Wunderground v.1.15,2013-02-22 06:10:00,
2013-02-22 00:15:00,20.3,14.5,29.97,NE,44,4.0,6.0,78,0.00,,,0.00,Wunderground v.1.15,2013-02-22 06:15:00,
2013-02-22 00:20:00,20.3,14.5,29.97,ENE,59,4.0,4.0,78,0.00,,,0.00,Wunderground v.1.15,2013-02-22 06:20:00,
2013-02-22 00:25:00,20.3,14.8,29.97,NE,35,3.0,5.0,79,0.00,,,0.00,Wunderground v.1.15,2013-02-22 06:25:00,
2013-02-22 00:30:00,20.4,14.9,29.96,East,85,3.0,5.0,79,0.00,,,0.00,Wunderground v.1.15,2013-02-22 06:30:00,
2013-02-22 00:35:00,20.4,15.2,29.96,ENE,77,4.0,5.0,80,0.00,,,0.00,Wunderground v.1.15,2013-02-22 06:35:00,
2013-02-22 00:41:00,20.4,15.8,29.96,ENE,68,4.0,6.0,82,0.00,,,0.00,Wunderground v.1.15,2013-02-22 06:41:00,
2013-02-22 00:46:00,20.3,16.2,29.96,NE,50,4.0,6.0,84,0.00,,,0.00,Wunderground v.1.15,2013-02-22 06:46:00,
2013-02-22 00:51:00,20.1,16.6,29.95,NE,53,4.0,5.0,86,0.00,,,0.00,Wunderground v.1.15,2013-02-22 06:51:00,
2013-02-22 00:56:00,19.9,16.9,29.95,ENE,70,4.0,6.0,88,0.00,,,0.00,Wunderground v.1.15,2013-02-22 06:56:00,
2013-02-22 01:01:00,19.7,17.0,29.94,NE,44,4.0,4.0,89,0.00,,,0.00,Wunderground v.1.15,2013-02-22 07:01:00,
2013-02-22 01:07:00,19.6,17.1,29.94,NE,36,4.0,5.0,90,0.00,,,0.00,Wunderground v.1.15,2013-02-22 07:07:00,
2013-02-22 01:12:00,19.5,17.3,29.93,NNE,32,4.0,4.0,91,0.00,,,0.00,Wunderground v.1.15,2013-02-22 07:12:00,
2013-02-22 01:17:00,19.5,17.3,29.93,NE,54,4.0,5.0,91,0.00,,,0.00,Wunderground v.1.15,2013-02-22 07:17:00,
2013-02-22 01:22:00,19.4,17.2,29.92,ENE,58,4.0,4.0,91,0.00,,,0.00,Wunderground v.1.15,2013-02-22 07:22:00,
2013-02-22 01:27:00,19.4,17.2,29.92,NE,42,4.0,4.0,91,0.00,,,0.00,Wunderground v.1.15,2013-02-22 07:27:00,
2013-02-22 01:33:00,19.4,17.5,29.92,ENE,61,4.0,5.0,92,0.00,,,0.00,Wunderground v.1.15,2013-02-22 07:33:00,
2013-02-22 01:38:00,19.4,17.5,29.92,ENE,74,4.0,5.0,92,0.00,,,0.00,Wunderground v.1.15,2013-02-22 07:38:00,
2013-02-22 01:43:00,19.4,17.5,29.91,ENE,65,4.0,6.0,92,0.00,,,0.00,Wunderground v.1.15,2013-02-22 07:43:00,
2013-02-22 01:48:00,19.4,17.5,29.91,NE,46,4.0,6.0,92,0.00,,,0.00,Wunderground v.1.15,2013-02-22 07:48:00,
2013-02-22 01:53:00,19.4,17.5,29.91,ENE,60,4.0,4.0,92,0.00,,,0.00,Wunderground v.1.15,2013-02-22 07:53:00,
2013-02-22 01:59:00,19.4,17.5,29.91,ENE,62,4.0,4.0,92,0.00,,,0.00,Wunderground v.1.15,2013-02-22 07:59:00,
2013-02-22 02:04:00,19.5,17.6,29.91,ENE,76,3.0,4.0,92,0.00,,,0.00,Wunderground v.1.15,2013-02-22 08:04:00,
2013-02-22 02:09:00,19.5,17.6,29.91,NNE,27,3.0,4.0,92,0.00,,,0.00,Wunderground v.1.15,2013-02-22 08:09:00,
2013-02-22 02:14:00,19.6,17.7,29.91,NNE,28,3.0,8.0,92,0.00,,,0.00,Wunderground v.1.15,2013-02-22 08:14:00,
2013-02-22 02:19:00,19.5,17.6,29.90,ENE,60,3.0,8.0,92,0.00,,,0.00,Wunderground v.1.15,2013-02-22 08:19:00,
2013-02-22 02:25:00,19.6,17.7,29.89,ENE,64,3.0,5.0,92,0.00,,,0.00,Wunderground v.1.15,2013-02-22 08:25:00,
2013-02-22 02:30:00,19.6,17.7,29.89,NE,39,3.0,4.0,92,0.00,,,0.00,Wunderground v.1.15,2013-02-22 08:30:00,
2013-02-22 02:35:00,19.7,17.8,29.89,ENE,60,3.0,5.0,92,0.00,,,0.00,Wunderground v.1.15,2013-02-22 08:35:00,
2013-02-22 02:40:00,19.7,17.8,29.89,East,84,3.0,3.0,92,0.00,,,0.00,Wunderground v.1.15,2013-02-22 08:40:00,
2013-02-22 02:45:00,19.8,18.1,29.90,NE,42,3.0,4.0,93,0.00,,,0.00,Wunderground v.1.15,2013-02-22 08:45:00,
2013-02-22 02:50:00,19.9,18.2,29.90,NE,35,3.0,3.0,93,0.00,,,0.00,Wunderground v.1.15,2013-02-22 08:50:00,
2013-02-22 02:55:00,19.9,18.2,29.90,NE,39,2.0,3.0,93,0.00,,,0.00,Wunderground v.1.15,2013-02-22 08:55:00,
2013-02-22 03:01:00,20.0,18.3,29.90,ENE,58,2.0,3.0,93,0.00,,,0.00,Wunderground v.1.15,2013-02-22 09:01:00,
2013-02-22 03:06:00,20.0,18.3,29.89,ENE,61,2.0,3.0,93,0.00,,,0.00,Wunderground v.1.15,2013-02-22 09:06:00,
2013-02-22 03:11:00,20.1,18.4,29.89,East,79,2.0,2.0,93,0.00,,,0.00,Wunderground v.1.15,2013-02-22 09:11:00,
2013-02-22 03:17:00,20.1,18.4,29.89,NE,53,2.0,2.0,93,0.00,,,0.00,Wunderground v.1.15,2013-02-22 09:17:00,
2013-02-22 03:22:00,20.2,18.5,29.89,ENE,60,2.0,3.0,93,0.00,,,0.00,Wunderground v.1.15,2013-02-22 09:22:00,
2013-02-22 03:27:00,20.2,18.5,29.88,NE,55,2.0,3.0,93,0.00,,,0.00,Wunderground v.1.15,2013-02-22 09:27:00,
2013-02-22 03:32:00,20.3,18.6,29.88,NNE,32,2.0,2.0,93,0.00,,,0.00,Wunderground v.1.15,2013-02-22 09:32:00,
2013-02-22 03:37:00,20.3,18.6,29.88,ENE,75,2.0,2.0,93,0.00,,,0.00,Wunderground v.1.15,2013-02-22 09:37:00,
2013-02-22 03:43:00,20.3,18.6,29.87,North,352,2.0,3.0,93,0.00,,,0.00,Wunderground v.1.15,2013-02-22 09:43:00,
2013-02-22 03:48:00,20.2,18.5,29.86,North,6,2.0,4.0,93,0.00,,,0.00,Wunderground v.1.15,2013-02-22 09:48:00,
2013-02-22 03:53:00,20.1,18.4,29.86,ENE,75,2.0,3.0,93,0.00,,,0.00,Wunderground v.1.15,2013-02-22 09:53:00,
2013-02-22 03:58:00,19.9,18.0,29.86,NNE,13,3.0,3.0,92,0.00,,,0.00,Wunderground v.1.15,2013-02-22 09:58:00,
2013-02-22 04:03:00,19.8,17.9,29.86,ENE,67,3.0,4.0,92,0.00,,,0.00,Wunderground v.1.15,2013-02-22 10:03:00,
2013-02-22 04:09:00,19.6,17.7,29.86,NE,56,3.0,5.0,92,0.00,,,0.00,Wunderground v.1.15,2013-02-22 10:09:00,
2013-02-22 04:14:00,19.5,17.6,29.86,NNE,28,2.0,3.0,92,0.00,,,0.00,Wunderground v.1.15,2013-02-22 10:14:00,
2013-02-22 04:19:00,19.4,17.7,29.86,NE,42,2.0,4.0,93,0.00,,,0.00,Wunderground v.1.15,2013-02-22 10:19:00,
2013-02-22 04:24:00,19.4,17.7,29.86,NNE,28,2.0,3.0,93,0.00,,,0.00,Wunderground v.1.15,2013-02-22 10:24:00,
2013-02-22 04:29:00,19.4,17.7,29.86,North,4,2.0,3.0,93,0.00,,,0.00,Wunderground v.1.15,2013-02-22 10:29:00,
2013-02-22 04:34:00,19.3,17.6,29.86,NNE,23,2.0,4.0,93,0.00,,,0.00,Wunderground v.1.15,2013-02-22 10:34:00,
2013-02-22 04:39:00,19.3,17.6,29.85,NE,55,2.0,2.0,93,0.00,,,0.00,Wunderground v.1.15,2013-02-22 10:39:00,
2013-02-22 04:45:00,19.3,17.6,29.86,NE,51,2.0,3.0,93,0.00,,,0.00,Wunderground v.1.15,2013-02-22 10:45:00,
2013-02-22 04:50:00,19.3,17.6,29.85,NE,48,2.0,2.0,93,0.00,,,0.00,Wunderground v.1.15,2013-02-22 10:50:00,
2013-02-22 04:55:00,19.3,17.6,29.85,NE,35,2.0,2.0,93,0.00,,,0.00,Wunderground v.1.15,2013-02-22 10:55:00,
2013-02-22 05:01:00,19.3,17.6,29.85,NNE,22,2.0,3.0,93,0.00,,,0.00,Wunderground v.1.15,2013-02-22 11:01:00,
2013-02-22 05:06:00,19.3,17.6,29.85,NNE,23,2.0,3.0,93,0.00,,,0.00,Wunderground v.1.15,2013-02-22 11:06:00,
2013-02-22 05:11:00,19.3,17.6,29.85,NNE,28,2.0,3.0,93,0.00,,,0.00,Wunderground v.1.15,2013-02-22 11:11:00,
2013-02-22 05:16:00,19.3,17.6,29.85,NE,44,2.0,4.0,93,0.00,,,0.00,Wunderground v.1.15,2013-02-22 11:16:00,
2013-02-22 05:21:00,19.3,17.6,29.85,NE,46,2.0,2.0,93,0.00,,,0.00,Wunderground v.1.15,2013-02-22 11:21:00,
2013-02-22 05:26:00,19.3,17.6,29.85,NNE,13,2.0,2.0,93,0.00,,,0.00,Wunderground v.1.15,2013-02-22 11:26:00,
2013-02-22 05:31:00,19.4,17.7,29.85,NE,42,2.0,2.0,93,0.00,,,0.00,Wunderground v.1.15,2013-02-22 11:31:00,
2013-02-22 05:36:00,19.4,17.7,29.84,ENE,59,2.0,2.0,93,0.00,,,0.00,Wunderground v.1.15,2013-02-22 11:36:00,
2013-02-22 05:41:00,19.4,17.7,29.84,NE,42,2.0,2.0,93,0.00,,,0.00,Wunderground v.1.15,2013-02-22 11:41:00,
2013-02-22 05:47:00,19.4,17.7,29.84,NNE,19,2.0,3.0,93,0.00,,,0.00,Wunderground v.1.15,2013-02-22 11:47:00,
2013-02-22 05:52:00,19.5,17.8,29.84,NNE,20,2.0,2.0,93,0.00,,,0.00,Wunderground v.1.15,2013-02-22 11:52:00,
2013-02-22 05:57:00,19.6,17.9,29.84,NNE,26,2.0,3.0,93,0.00,,,0.00,Wunderground v.1.15,2013-02-22 11:57:00,
2013-02-22 06:02:00,19.6,17.9,29.84,ENE,64,2.0,3.0,93,0.00,,,0.00,Wunderground v.1.15,2013-02-22 12:02:00,
2013-02-22 06:07:00,19.6,17.9,29.84,ENE,63,3.0,3.0,93,0.00,,,0.00,Wunderground v.1.15,2013-02-22 12:07:00,
2013-02-22 06:12:00,19.7,18.0,29.84,North,355,3.0,4.0,93,0.00,,,0.00,Wunderground v.1.15,2013-02-22 12:12:00,
2013-02-22 06:18:00,19.7,18.0,29.83,NE,34,2.0,4.0,93,0.00,,,0.00,Wunderground v.1.15,2013-02-22 12:18:00,
2013-02-22 06:23:00,19.7,18.0,29.84,NE,41,2.0,2.0,93,0.00,,,0.00,Wunderground v.1.15,2013-02-22 12:23:00,
2013-02-22 06:28:00,19.8,18.1,29.83,North,8,2.0,3.0,93,0.00,,,0.00,Wunderground v.1.15,2013-02-22 12:28:00,
2013-02-22 06:33:00,19.8,18.1,29.83,ENE,60,2.0,2.0,93,0.00,,,0.00,Wunderground v.1.15,2013-02-22 12:33:00,
2013-02-22 06:38:00,19.8,18.1,29.83,NNE,28,1.0,2.0,93,0.00,,,0.00,Wunderground v.1.15,2013-02-22 12:38:00,
2013-02-22 06:44:00,19.9,18.2,29.83,ENE,64,1.0,3.0,93,0.00,,,0.00,Wunderground v.1.15,2013-02-22 12:44:00,
2013-02-22 06:49:00,19.9,18.2,29.83,NE,42,2.0,3.0,93,0.00,,,0.00,Wunderground v.1.15,2013-02-22 12:49:00,
2013-02-22 06:54:00,20.0,18.3,29.83,NNE,32,2.0,3.0,93,0.00,,,0.00,Wunderground v.1.15,2013-02-22 12:54:00,
2013-02-22 06:59:00,20.0,18.3,29.83,NNE,15,2.0,3.0,93,0.00,,,0.00,Wunderground v.1.15,2013-02-22 12:59:00,
2013-02-22 07:04:00,20.0,18.3,29.83,NNE,30,2.0,4.0,93,0.00,,,0.00,Wunderground v.1.15,2013-02-22 13:04:00,
2013-02-22 07:10:00,20.1,18.4,29.83,ENE,76,2.0,2.0,93,0.00,,,0.00,Wunderground v.1.15,2013-02-22 13:10:00,
2013-02-22 07:15:00,20.1,18.4,29.83,ENE,57,2.0,2.0,93,0.00,,,0.00,Wunderground v.1.15,2013-02-22 13:15:00,
2013-02-22 07:20:00,20.1,18.4,29.83,NNE,20,2.0,2.0,93,0.00,,,0.00,Wunderground v.1.15,2013-02-22 13:20:00,
2013-02-22 07:25:00,20.2,18.5,29.83,North,352,2.0,3.0,93,0.00,,,0.00,Wunderground v.1.15,2013-02-22 13:25:00,
2013-02-22 07:30:00,20.2,18.5,29.83,NNE,13,2.0,3.0,93,0.00,,,0.00,Wunderground v.1.15,2013-02-22 13:30:00,
2013-02-22 07:36:00,20.2,18.5,29.82,North,9,2.0,3.0,93,0.00,,,0.00,Wunderground v.1.15,2013-02-22 13:36:00,
2013-02-22 07:41:00,20.3,18.6,29.82,NE,47,2.0,3.0,93,0.00,,,0.00,Wunderground v.1.15,2013-02-22 13:41:00,
2013-02-22 07:46:00,20.4,18.7,29.82,NNE,33,2.0,3.0,93,0.00,,,0.00,Wunderground v.1.15,2013-02-22 13:46:00,
2013-02-22 07:51:00,20.4,18.7,29.82,NNE,13,2.0,2.0,93,0.00,,,0.00,Wunderground v.1.15,2013-02-22 13:51:00,
2013-02-22 07:56:00,20.5,18.8,29.82,ENE,77,2.0,2.0,93,0.00,,,0.00,Wunderground v.1.15,2013-02-22 13:56:00,
2013-02-22 08:01:00,20.5,18.8,29.82,NE,41,2.0,4.0,93,0.00,,,0.00,Wunderground v.1.15,2013-02-22 14:01:00,
2013-02-22 08:06:00,20.5,18.8,29.82,NNE,22,2.0,4.0,93,0.00,,,0.00,Wunderground v.1.15,2013-02-22 14:06:00,
2013-02-22 08:11:00,20.6,18.9,29.82,NNE,25,2.0,3.0,93,0.00,,,0.00,Wunderground v.1.15,2013-02-22 14:11:00,
2013-02-22 08:16:00,20.6,18.9,29.82,NNE,20,2.0,3.0,93,0.00,,,0.00,Wunderground v.1.15,2013-02-22 14:16:00,
2013-02-22 08:21:00,20.7,19.0,29.82,NNE,32,2.0,3.0,93,0.00,,,0.00,Wunderground v.1.15,2013-02-22 14:21:00,
2013-02-22 08:26:00,20.8,19.1,29.82,NNE,20,2.0,3.0,93,0.00,,,0.00,Wunderground v.1.15,2013-02-22 14:26:00,
2013-02-22 08:31:00,20.9,19.2,29.82,North,8,2.0,3.0,93,0.00,,,0.00,Wunderground v.1.15,2013-02-22 14:31:00,
2013-02-22 08:36:00,21.0,19.3,29.82,North,5,2.0,3.0,93,0.00,,,0.00,Wunderground v.1.15,2013-02-22 14:36:00,
2013-02-22 08:41:00,21.0,19.3,29.82,NE,55,2.0,4.0,93,0.00,,,0.00,Wunderground v.1.15,2013-02-22 14:41:00,
2013-02-22 08:46:00,21.1,19.4,29.81,ENE,75,2.0,4.0,93,0.00,,,0.00,Wunderground v.1.15,2013-02-22 14:46:00,
2013-02-22 08:51:00,21.2,19.5,29.82,NE,46,2.0,2.0,93,0.00,,,0.00,Wunderground v.1.15,2013-02-22 14:51:00,
2013-02-22 08:56:00,21.3,19.6,29.81,ENE,65,2.0,2.0,93,0.00,,,0.00,Wunderground v.1.15,2013-02-22 14:56:00,
2013-02-22 09:01:00,21.4,19.7,29.81,ENE,70,2.0,3.0,93,0.00,,,0.00,Wunderground v.1.15,2013-02-22 15:01:00,
2013-02-22 09:07:00,21.5,19.8,29.81,ENE,70,2.0,3.0,93,0.00,,,0.00,Wunderground v.1.15,2013-02-22 15:07:00,
2013-02-22 09:12:00,21.6,19.9,29.81,NNE,33,2.0,2.0,93,0.00,,,0.00,Wunderground v.1.15,2013-02-22 15:12:00,
2013-02-22 09:17:00,21.7,20.0,29.81,NNE,12,2.0,3.0,93,0.00,,,0.00,Wunderground v.1.15,2013-02-22 15:17:00,
2013-02-22 09:22:00,21.8,20.1,29.81,NE,35,2.0,3.0,93,0.00,,,0.00,Wunderground v.1.15,2013-02-22 15:22:00,
2013-02-22 09:28:00,22.1,20.4,29.81,NNE,19,2.0,3.0,93,0.00,,,0.00,Wunderground v.1.15,2013-02-22 15:28:00,
2013-02-22 09:33:00,22.2,20.5,29.81,NNE,32,2.0,2.0,93,0.00,,,0.00,Wunderground v.1.15,2013-02-22 15:33:00,
2013-02-22 09:38:00,22.4,20.7,29.81,ENE,61,2.0,2.0,93,0.00,,,0.00,Wunderground v.1.15,2013-02-22 15:38:00,
2013-02-22 09:43:00,22.4,20.7,29.81,ENE,64,2.0,3.0,93,0.00,,,0.00,Wunderground v.1.15,2013-02-22 15:43:00,
2013-02-22 09:48:00,22.7,21.0,29.81,North,4,2.0,3.0,93,0.00,,,0.00,Wunderground v.1.15,2013-02-22 15:48:00,
2013-02-22 09:53:00,22.9,21.2,29.81,NNE,18,2.0,2.0,93,0.00,,,0.00,Wunderground v.1.15,2013-02-22 15:53:00,
2013-02-22 09:59:00,23.2,21.5,29.81,NNE,16,2.0,2.0,93,0.00,,,0.00,Wunderground v.1.15,2013-02-22 15:59:00,
2013-02-22 10:04:00,23.6,21.9,29.81,North,8,1.0,2.0,93,0.00,,,0.00,Wunderground v.1.15,2013-02-22 16:04:00,
2013-02-22 10:09:00,23.8,22.1,29.80,ENE,62,2.0,3.0,93,0.00,,,0.00,Wunderground v.1.15,2013-02-22 16:09:00,
2013-02-22 10:14:00,24.0,22.3,29.80,North,8,2.0,3.0,93,0.00,,,0.00,Wunderground v.1.15,2013-02-22 16:14:00,
2013-02-22 10:19:00,24.4,22.7,29.80,North,1,2.0,2.0,93,0.00,,,0.00,Wunderground v.1.15,2013-02-22 16:19:00,
2013-02-22 10:25:00,25.0,23.3,29.80,ENE,67,2.0,2.0,93,0.00,,,0.00,Wunderground v.1.15,2013-02-22 16:25:00,
2013-02-22 10:30:00,25.4,23.7,29.80,East,89,2.0,2.0,93,0.00,,,0.00,Wunderground v.1.15,2013-02-22 16:30:00,
2013-02-22 10:35:00,25.9,24.2,29.80,ENE,70,2.0,3.0,93,0.00,,,0.00,Wunderground v.1.15,2013-02-22 16:35:00,
2013-02-22 10:40:00,26.4,24.7,29.80,NNE,21,2.0,2.0,93,0.00,,,0.00,Wunderground v.1.15,2013-02-22 16:40:00,
2013-02-22 10:45:00,26.7,24.9,29.80,East,93,2.0,3.0,93,0.00,,,0.00,Wunderground v.1.15,2013-02-22 16:45:00,
2013-02-22 10:50:00,26.6,24.6,29.80,ENE,60,2.0,2.0,92,0.00,,,0.00,Wunderground v.1.15,2013-02-22 16:50:00,
2013-02-22 10:56:00,26.6,24.6,29.80,North,355,2.0,3.0,92,0.00,,,0.00,Wunderground v.1.15,2013-02-22 16:56:00,
2013-02-22 11:01:00,26.7,24.7,29.79,NE,43,2.0,3.0,92,0.00,,,0.00,Wunderground v.1.15,2013-02-22 17:01:00,
2013-02-22 11:06:00,26.8,24.8,29.79,NNE,18,2.0,4.0,92,0.00,,,0.00,Wunderground v.1.15,2013-02-22 17:06:00,
2013-02-22 11:11:00,26.4,24.1,29.79,NNE,18,2.0,3.0,91,0.00,,,0.00,Wunderground v.1.15,2013-02-22 17:11:00,
2013-02-22 11:16:00,26.4,24.1,29.79,North,356,2.0,3.0,91,0.00,,,0.00,Wunderground v.1.15,2013-02-22 17:16:00,
2013-02-22 11:22:00,26.7,24.7,29.80,NNE,20,2.0,2.0,92,0.00,,,0.00,Wunderground v.1.15,2013-02-22 17:22:00,
2013-02-22 11:27:00,26.6,24.3,29.80,East,91,2.0,2.0,91,0.00,,,0.00,Wunderground v.1.15,2013-02-22 17:27:00,
2013-02-22 11:32:00,26.3,24.0,29.80,East,87,2.0,5.0,91,0.00,,,0.00,Wunderground v.1.15,2013-02-22 17:32:00,
2013-02-22 11:37:00,26.3,24.0,29.80,NNE,26,2.0,5.0,91,0.00,,,0.00,Wunderground v.1.15,2013-02-22 17:37:00,
2013-02-22 11:42:00,26.5,24.2,29.80,NE,44,2.0,2.0,91,0.00,,,0.00,Wunderground v.1.15,2013-02-22 17:42:00,
2013-02-22 11:48:00,26.7,24.4,29.79,North,3,2.0,2.0,91,0.00,,,0.00,Wunderground v.1.15,2013-02-22 17:48:00,
2013-02-22 11:53:00,26.6,24.3,29.79,North,4,2.0,2.0,91,0.00,,,0.00,Wunderground v.1.15,2013-02-22 17:53:00,
2013-02-22 11:58:00,26.9,24.6,29.79,NE,50,1.0,3.0,91,0.00,,,0.00,Wunderground v.1.15,2013-02-22 17:58:00,
2013-02-22 12:03:00,26.7,24.2,29.79,ENE,75,1.0,3.0,90,0.00,,,0.00,Wunderground v.1.15,2013-02-22 18:03:00,
2013-02-22 12:08:00,26.7,24.4,29.79,NNE,15,2.0,3.0,91,0.00,,,0.00,Wunderground v.1.15,2013-02-22 18:08:00,
2013-02-22 12:14:00,26.8,24.5,29.79,ENE,70,1.0,3.0,91,0.00,,,0.00,Wunderground v.1.15,2013-02-22 18:14:00,
2013-02-22 12:19:00,26.7,24.2,29.79,North,8,2.0,3.0,90,0.00,,,0.00,Wunderground v.1.15,2013-02-22 18:19:00,
2013-02-22 12:24:00,26.7,24.4,29.78,NNE,28,2.0,2.0,91,0.00,,,0.00,Wunderground v.1.15,2013-02-22 18:24:00,
2013-02-22 12:29:00,27.0,24.5,29.78,NNE,15,1.0,2.0,90,0.00,,,0.00,Wunderground v.1.15,2013-02-22 18:29:00,
2013-02-22 12:34:00,27.6,25.1,29.78,North,358,1.0,1.0,90,0.00,,,0.00,Wunderground v.1.15,2013-02-22 18:34:00,
2013-02-22 12:39:00,28.1,25.5,29.78,ENE,62,1.0,2.0,90,0.00,,,0.00,Wunderground v.1.15,2013-02-22 18:39:00,
2013-02-22 12:44:00,28.0,25.4,29.78,NNE,20,1.0,2.0,90,0.00,,,0.00,Wunderground v.1.15,2013-02-22 18:44:00,
2013-02-22 12:49:00,27.9,25.1,29.78,North,1,1.0,1.0,89,0.00,,,0.00,Wunderground v.1.15,2013-02-22 18:49:00,
2013-02-22 12:54:00,28.0,25.2,29.78,North,5,1.0,2.0,89,0.00,,,0.00,Wunderground v.1.15,2013-02-22 18:54:00,
2013-02-22 12:59:00,28.0,23.8,29.78,NW,308,1.0,2.0,84,0.00,,,0.00,Wunderground v.1.15,2013-02-22 18:59:00,
2013-02-22 13:05:00,27.8,24.2,29.77,NNW,346,1.0,2.0,86,0.00,,,0.00,Wunderground v.1.15,2013-02-22 19:05:00,
2013-02-22 13:10:00,27.7,24.1,29.77,NNE,21,1.0,1.0,86,0.00,,,0.00,Wunderground v.1.15,2013-02-22 19:10:00,
2013-02-22 13:15:00,27.7,24.3,29.77,ENE,69,1.0,1.0,87,0.00,,,0.00,Wunderground v.1.15,2013-02-22 19:15:00,
2013-02-22 13:20:00,27.8,24.2,29.77,North,8,1.0,1.0,86,0.00,,,0.00,Wunderground v.1.15,2013-02-22 19:20:00,
2013-02-22 13:25:00,27.7,22.3,29.77,WNW,300,1.0,2.0,80,0.00,,,0.00,Wunderground v.1.15,2013-02-22 19:25:00,
2013-02-22 13:31:00,27.6,23.7,29.77,North,355,1.0,1.0,85,0.00,,,0.00,Wunderground v.1.15,2013-02-22 19:31:00,
2013-02-22 13:36:00,27.6,22.8,29.77,WNW,302,1.0,1.0,82,0.00,,,0.00,Wunderground v.1.15,2013-02-22 19:36:00,
2013-02-22 13:41:00,27.6,22.8,29.77,North,4,1.0,1.0,82,0.00,,,0.00,Wunderground v.1.15,2013-02-22 19:41:00,
2013-02-22 13:46:00,27.9,22.2,29.77,NW,322,1.0,2.0,79,0.00,,,0.00,Wunderground v.1.15,2013-02-22 19:46:00,
2013-02-22 13:51:00,27.5,22.1,29.77,WNW,293,1.0,1.0,80,0.00,,,0.00,Wunderground v.1.15,2013-02-22 19:51:00,
2013-02-22 13:57:00,27.2,21.5,29.77,West,277,1.0,1.0,79,0.00,,,0.00,Wunderground v.1.15,2013-02-22 19:57:00,
2013-02-22 14:02:00,27.1,21.5,29.77,WNW,293,1.0,1.0,79,0.00,,,0.00,Wunderground v.1.15,2013-02-22 20:02:00,
2013-02-22 14:07:00,27.2,21.5,29.77,WNW,298,0.0,1.0,79,0.00,,,0.00,Wunderground v.1.15,2013-02-22 20:07:00,
2013-02-22 14:12:00,27.3,21.3,29.76,WNW,303,1.0,1.0,78,0.00,,,0.00,Wunderground v.1.15,2013-02-22 20:12:00,
2013-02-22 14:17:00,27.1,21.2,29.76,NNE,19,1.0,2.0,78,0.00,,,0.00,Wunderground v.1.15,2013-02-22 20:17:00,
2013-02-22 14:22:00,27.0,21.7,29.76,WNW,289,1.0,1.0,80,0.00,,,0.00,Wunderground v.1.15,2013-02-22 20:22:00,
2013-02-22 14:28:00,26.9,21.3,29.76,West,274,1.0,1.0,79,0.00,,,0.00,Wunderground v.1.15,2013-02-22 20:28:00,
2013-02-22 14:33:00,26.9,22.1,29.76,ENE,71,0.0,1.0,82,0.00,,,0.00,Wunderground v.1.15,2013-02-22 20:33:00,
2013-02-22 14:38:00,27.0,22.5,29.76,NNE,12,0.0,1.0,83,0.00,,,0.00,Wunderground v.1.15,2013-02-22 20:38:00,
2013-02-22 14:43:00,27.0,21.7,29.76,West,274,1.0,2.0,80,0.00,,,0.00,Wunderground v.1.15,2013-02-22 20:43:00,
2013-02-22 14:48:00,26.8,21.5,29.76,WNW,290,1.0,2.0,80,0.00,,,0.00,Wunderground v.1.15,2013-02-22 20:48:00,
2013-02-22 14:54:00,26.5,21.2,29.76,NW,312,1.0,2.0,80,0.00,,,0.00,Wunderground v.1.15,2013-02-22 20:54:00,
2013-02-22 14:59:00,26.2,21.2,29.76,West,274,1.0,2.0,81,0.00,,,0.00,Wunderground v.1.15,2013-02-22 20:59:00,
2013-02-22 15:04:00,25.9,21.4,29.77,West,272,2.0,2.0,83,0.00,,,0.00,Wunderground v.1.15,2013-02-22 21:04:00,
2013-02-22 15:09:00,25.7,21.3,29.77,West,265,2.0,2.0,83,0.00,,,0.00,Wunderground v.1.15,2013-02-22 21:09:00,
2013-02-22 15:14:00,25.6,21.2,29.77,West,260,2.0,3.0,83,0.00,,,0.00,Wunderground v.1.15,2013-02-22 21:14:00,
2013-02-22 15:20:00,25.5,21.3,29.77,WSW,252,2.0,3.0,84,0.00,,,0.00,Wunderground v.1.15,2013-02-22 21:20:00,
2013-02-22 15:25:00,25.5,21.1,29.77,WSW,250,2.0,3.0,83,0.00,,,0.00,Wunderground v.1.15,2013-02-22 21:25:00,
2013-02-22 15:30:00,25.5,21.1,29.77,West,278,2.0,2.0,83,0.00,,,0.00,Wunderground v.1.15,2013-02-22 21:30:00,
2013-02-22 15:35:00,25.5,21.1,29.77,West,272,2.0,2.0,83,0.00,,,0.00,Wunderground v.1.15,2013-02-22 21:35:00,
2013-02-22 15:40:00,25.6,20.6,29.77,NW,310,2.0,2.0,81,0.00,,,0.00,Wunderground v.1.15,2013-02-22 21:40:00,
2013-02-22 15:46:00,25.7,21.0,29.77,WNW,287,2.0,3.0,82,0.00,,,0.00,Wunderground v.1.15,2013-02-22 21:46:00,
2013-02-22 15:51:00,25.6,20.9,29.77,WNW,289,2.0,2.0,82,0.00,,,0.00,Wunderground v.1.15,2013-02-22 21:51:00,
2013-02-22 15:56:00,25.4,21.0,29.77,West,265,2.0,3.0,83,0.00,,,0.00,Wunderground v.1.15,2013-02-22 21:56:00,
2013-02-22 16:01:00,25.3,20.9,29.77,West,278,2.0,2.0,83,0.00,,,0.00,Wunderground v.1.15,2013-02-22 22:01:00,
2013-02-22 16:06:00,25.3,20.9,29.77,WSW,257,2.0,2.0,83,0.00,,,0.00,Wunderground v.1.15,2013-02-22 22:06:00,
2013-02-22 16:12:00,25.2,20.8,29.78,West,273,2.0,5.0,83,0.00,,,0.00,Wunderground v.1.15,2013-02-22 22:12:00,
2013-02-22 16:17:00,25.1,20.7,29.78,West,281,2.0,5.0,83,0.00,,,0.00,Wunderground v.1.15,2013-02-22 22:17:00,
2013-02-22 16:22:00,25.0,20.6,29.78,West,262,3.0,4.0,83,0.00,,,0.00,Wunderground v.1.15,2013-02-22 22:22:00,
2013-02-22 16:27:00,25.0,20.6,29.78,West,262,3.0,4.0,83,0.00,,,0.00,Wunderground v.1.15,2013-02-22 22:27:00,
2013-02-22 16:32:00,24.9,20.8,29.78,West,262,3.0,3.0,84,0.00,,,0.00,Wunderground v.1.15,2013-02-22 22:32:00,
2013-02-22 16:37:00,24.8,20.7,29.78,WNW,285,3.0,5.0,84,0.00,,,0.00,Wunderground v.1.15,2013-02-22 22:37:00,
2013-02-22 16:42:00,24.7,21.1,29.78,West,270,3.0,3.0,86,0.00,,,0.00,Wunderground v.1.15,2013-02-22 22:42:00,
2013-02-22 16:47:00,24.6,21.0,29.78,West,280,3.0,4.0,86,0.00,,,0.00,Wunderground v.1.15,2013-02-22 22:47:00,
2013-02-22 16:52:00,24.5,21.2,29.78,West,267,3.0,3.0,87,0.00,,,0.00,Wunderground v.1.15,2013-02-22 22:52:00,
2013-02-22 16:57:00,24.5,21.2,29.78,WNW,285,2.0,3.0,87,0.00,,,0.00,Wunderground v.1.15,2013-02-22 22:57:00,
2013-02-22 17:03:00,24.5,21.2,29.78,WNW,297,1.0,3.0,87,0.00,,,0.00,Wunderground v.1.15,2013-02-22 23:03:00,
2013-02-22 17:08:00,24.4,21.1,29.78,West,276,1.0,3.0,87,0.00,,,0.00,Wunderground v.1.15,2013-02-22 23:08:00,
2013-02-22 17:13:00,24.3,21.0,29.79,West,262,2.0,3.0,87,0.00,,,0.00,Wunderground v.1.15,2013-02-22 23:13:00,
2013-02-22 17:18:00,24.3,21.0,29.79,WNW,296,2.0,3.0,87,0.00,,,0.00,Wunderground v.1.15,2013-02-22 23:18:00,
2013-02-22 17:23:00,24.2,20.9,29.79,WNW,285,1.0,2.0,87,0.00,,,0.00,Wunderground v.1.15,2013-02-22 23:23:00,
2013-02-22 17:29:00,24.1,20.8,29.79,WNW,285,1.0,1.0,87,0.00,,,0.00,Wunderground v.1.15,2013-02-22 23:29:00,
2013-02-22 17:34:00,24.0,20.7,29.80,West,278,1.0,2.0,87,0.00,,,0.00,Wunderground v.1.15,2013-02-22 23:34:00,
2013-02-22 17:39:00,24.0,20.7,29.80,NW,314,1.0,1.0,87,0.00,,,0.00,Wunderground v.1.15,2013-02-22 23:39:00,
2013-02-22 17:44:00,23.9,20.6,29.80,WNW,285,1.0,1.0,87,0.00,,,0.00,Wunderground v.1.15,2013-02-22 23:44:00,
2013-02-22 17:49:00,23.8,20.5,29.80,WSW,255,1.0,1.0,87,0.00,,,0.00,Wunderground v.1.15,2013-02-22 23:49:00,
2013-02-22 17:55:00,23.8,20.8,29.80,WNW,289,1.0,2.0,88,0.00,,,0.00,Wunderground v.1.15,2013-02-22 23:55:00,
2013-02-22 18:00:00,23.7,20.7,29.80,NW,325,1.0,1.0,88,0.00,,,0.00,Wunderground v.1.15,2013-02-23 00:00:00,
2013-02-22 18:05:00,23.6,20.6,29.80,West,271,1.0,2.0,88,0.00,,,0.00,Wunderground v.1.15,2013-02-23 00:05:00,
2013-02-22 18:10:00,23.6,20.6,29.80,WNW,297,1.0,1.0,88,0.00,,,0.00,Wunderground v.1.15,2013-02-23 00:10:00,
2013-02-22 18:15:00,23.5,20.5,29.80,NW,314,1.0,2.0,88,0.00,,,0.00,Wunderground v.1.15,2013-02-23 00:15:00,
2013-02-22 18:21:00,23.5,20.5,29.80,WNW,286,0.0,1.0,88,0.00,,,0.00,Wunderground v.1.15,2013-02-23 00:21:00,
2013-02-22 18:26:00,23.4,20.4,29.80,West,277,1.0,2.0,88,0.00,,,0.00,Wunderground v.1.15,2013-02-23 00:26:00,
2013-02-22 18:31:00,23.3,20.5,29.80,West,281,1.0,1.0,89,0.00,,,0.00,Wunderground v.1.15,2013-02-23 00:31:00,
2013-02-22 18:36:00,23.2,20.4,29.80,West,278,1.0,1.0,89,0.00,,,0.00,Wunderground v.1.15,2013-02-23 00:36:00,
2013-02-22 18:41:00,23.2,20.4,29.80,WNW,289,1.0,1.0,89,0.00,,,0.00,Wunderground v.1.15,2013-02-23 00:41:00,
2013-02-22 18:46:00,23.1,20.3,29.80,West,278,1.0,3.0,89,0.00,,,0.00,Wunderground v.1.15,2013-02-23 00:46:00,
2013-02-22 18:52:00,23.0,20.2,29.80,West,267,1.0,2.0,89,0.00,,,0.00,Wunderground v.1.15,2013-02-23 00:52:00,
2013-02-22 18:57:00,23.0,20.5,29.80,WNW,285,1.0,2.0,90,0.00,,,0.00,Wunderground v.1.15,2013-02-23 00:57:00,
2013-02-22 19:02:00,23.1,20.6,29.80,NW,305,1.0,1.0,90,0.00,,,0.00,Wunderground v.1.15,2013-02-23 01:02:00,
2013-02-22 19:07:00,23.0,20.5,29.80,WNW,296,1.0,2.0,90,0.00,,,0.00,Wunderground v.1.15,2013-02-23 01:07:00,
2013-02-22 19:12:00,23.0,20.5,29.80,WNW,284,1.0,1.0,90,0.00,,,0.00,Wunderground v.1.15,2013-02-23 01:12:00,
2013-02-22 19:18:00,22.9,20.4,29.80,West,276,1.0,2.0,90,0.00,,,0.00,Wunderground v.1.15,2013-02-23 01:18:00,
2013-02-22 19:23:00,22.8,20.3,29.80,WNW,288,1.0,1.0,90,0.00,,,0.00,Wunderground v.1.15,2013-02-23 01:23:00,
2013-02-22 19:28:00,22.7,20.5,29.79,West,281,1.0,1.0,91,0.00,,,0.00,Wunderground v.1.15,2013-02-23 01:28:00,
2013-02-22 19:33:00,22.7,20.5,29.79,West,260,1.0,1.0,91,0.00,,,0.00,Wunderground v.1.15,2013-02-23 01:33:00,
2013-02-22 19:38:00,22.6,20.4,29.79,West,278,1.0,1.0,91,0.00,,,0.00,Wunderground v.1.15,2013-02-23 01:38:00,
2013-02-22 19:44:00,22.4,20.2,29.79,West,274,0.0,2.0,91,0.00,,,0.00,Wunderground v.1.15,2013-02-23 01:44:00,
2013-02-22 19:49:00,22.3,20.1,29.79,NNW,335,0.0,2.0,91,0.00,,,0.00,Wunderground v.1.15,2013-02-23 01:49:00,
2013-02-22 19:54:00,22.2,20.0,29.79,West,271,0.0,1.0,91,0.00,,,0.00,Wunderground v.1.15,2013-02-23 01:54:00,
2013-02-22 19:59:00,22.1,20.1,29.79,WSW,242,1.0,2.0,92,0.00,,,0.00,Wunderground v.1.15,2013-02-23 01:59:00,
2013-02-22 20:04:00,22.1,20.1,29.79,West,269,1.0,1.0,92,0.00,,,0.00,Wunderground v.1.15,2013-02-23 02:04:00,
2013-02-22 20:10:00,22.1,20.1,29.79,WSW,250,1.0,2.0,92,0.00,,,0.00,Wunderground v.1.15,2013-02-23 02:10:00,
2013-02-22 20:15:00,22.0,20.0,29.79,WSW,257,1.0,2.0,92,0.00,,,0.00,Wunderground v.1.15,2013-02-23 02:15:00,
2013-02-22 20:20:00,21.9,19.9,29.79,West,263,1.0,1.0,92,0.00,,,0.00,Wunderground v.1.15,2013-02-23 02:20:00,
2013-02-22 20:25:00,21.9,19.9,29.79,West,266,1.0,1.0,92,0.00,,,0.00,Wunderground v.1.15,2013-02-23 02:25:00,
2013-02-22 20:30:00,21.8,19.8,29.79,West,267,1.0,1.0,92,0.00,,,0.00,Wunderground v.1.15,2013-02-23 02:30:00,
2013-02-22 20:36:00,21.7,19.7,29.78,West,271,1.0,1.0,92,0.00,,,0.00,Wunderground v.1.15,2013-02-23 02:36:00,
2013-02-22 20:41:00,21.6,19.6,29.79,West,263,1.0,1.0,92,0.00,,,0.00,Wunderground v.1.15,2013-02-23 02:41:00,
2013-02-22 20:46:00,21.6,19.6,29.78,West,260,0.0,1.0,92,0.00,,,0.00,Wunderground v.1.15,2013-02-23 02:46:00,
2013-02-22 20:51:00,21.5,19.5,29.78,West,274,0.0,1.0,92,0.00,,,0.00,Wunderground v.1.15,2013-02-23 02:51:00,
2013-02-22 20:56:00,21.6,19.6,29.78,West,266,1.0,1.0,92,0.00,,,0.00,Wunderground v.1.15,2013-02-23 02:56:00,
2013-02-22 21:02:00,21.5,19.5,29.78,West,263,0.0,1.0,92,0.00,,,0.00,Wunderground v.1.15,2013-02-23 03:02:00,
2013-02-22 21:07:00,21.4,19.4,29.78,WSW,253,0.0,1.0,92,0.00,,,0.00,Wunderground v.1.15,2013-02-23 03:07:00,
2013-02-22 21:12:00,21.2,19.2,29.78,WSW,237,0.0,1.0,92,0.00,,,0.00,Wunderground v.1.15,2013-02-23 03:12:00,
2013-02-22 21:17:00,21.1,19.1,29.78,West,266,0.0,1.0,92,0.00,,,0.00,Wunderground v.1.15,2013-02-23 03:17:00,
2013-02-22 21:22:00,20.8,18.8,29.78,WSW,245,0.0,1.0,92,0.00,,,0.00,Wunderground v.1.15,2013-02-23 03:22:00,
2013-02-22 21:28:00,20.6,18.6,29.79,West,268,0.0,1.0,92,0.00,,,0.00,Wunderground v.1.15,2013-02-23 03:28:00,
2013-02-22 21:33:00,20.4,18.4,29.78,WSW,255,0.0,1.0,92,0.00,,,0.00,Wunderground v.1.15,2013-02-23 03:33:00,
2013-02-22 21:38:00,20.1,18.4,29.79,West,259,0.0,1.0,93,0.00,,,0.00,Wunderground v.1.15,2013-02-23 03:38:00,
2013-02-22 21:43:00,19.8,18.1,29.79,West,259,0.0,1.0,93,0.00,,,0.00,Wunderground v.1.15,2013-02-23 03:43:00,
2013-02-22 21:48:00,19.7,18.0,29.79,WSW,258,0.0,1.0,93,0.00,,,0.00,Wunderground v.1.15,2013-02-23 03:48:00,
2013-02-22 21:54:00,19.6,17.9,29.79,West,259,0.0,1.0,93,0.00,,,0.00,Wunderground v.1.15,2013-02-23 03:54:00,
2013-02-22 21:59:00,19.7,18.0,29.79,West,259,0.0,1.0,93,0.00,,,0.00,Wunderground v.1.15,2013-02-23 03:59:00,
2013-02-22 22:04:00,19.7,18.0,29.79,West,259,0.0,1.0,93,0.00,,,0.00,Wunderground v.1.15,2013-02-23 04:04:00,
2013-02-22 22:09:00,19.8,18.1,29.78,West,267,0.0,1.0,93,0.00,,,0.00,Wunderground v.1.15,2013-02-23 04:09:00,
2013-02-22 22:14:00,19.7,18.0,29.78,West,267,0.0,1.0,93,0.00,,,0.00,Wunderground v.1.15,2013-02-23 04:14:00,
2013-02-22 22:20:00,19.7,18.0,29.78,West,267,0.0,1.0,93,0.00,,,0.00,Wunderground v.1.15,2013-02-23 04:20:00,
2013-02-22 22:25:00,19.6,17.9,29.78,West,267,0.0,1.0,93,0.00,,,0.00,Wunderground v.1.15,2013-02-23 04:25:00,
2013-02-22 22:30:00,19.5,17.8,29.78,West,268,0.0,1.0,93,0.00,,,0.00,Wunderground v.1.15,2013-02-23 04:30:00,
2013-02-22 22:35:00,19.6,17.9,29.78,West,269,0.0,1.0,93,0.00,,,0.00,Wunderground v.1.15,2013-02-23 04:35:00,
2013-02-22 22:40:00,19.6,17.9,29.78,West,263,0.0,1.0,93,0.00,,,0.00,Wunderground v.1.15,2013-02-23 04:40:00,
2013-02-22 22:46:00,19.6,17.9,29.78,West,263,0.0,1.0,93,0.00,,,0.00,Wunderground v.1.15,2013-02-23 04:46:00,
2013-02-22 22:51:00,19.6,17.9,29.78,West,259,1.0,1.0,93,0.00,,,0.00,Wunderground v.1.15,2013-02-23 04:51:00,
2013-02-22 22:56:00,19.6,17.9,29.78,WSW,255,1.0,2.0,93,0.00,,,0.00,Wunderground v.1.15,2013-02-23 04:56:00,
2013-02-22 23:00:00,19.6,17.9,29.79,WSW,255,1.0,1.0,93,0.00,,,0.00,Wunderground v.1.15,2013-02-23 05:00:00,
2013-02-22 23:01:00,19.6,17.9,29.79,WSW,255,1.0,1.0,93,0.00,,,0.00,Wunderground v.1.15,2013-02-23 05:01:00,
2013-02-22 23:03:00,19.6,17.9,29.79,WSW,257,1.0,1.0,93,0.00,,,0.00,Wunderground v.1.15,2013-02-23 05:03:00,
2013-02-22 23:05:00,19.6,17.9,29.79,WSW,255,1.0,1.0,93,0.00,,,0.00,Wunderground v.1.15,2013-02-23 05:05:00,
2013-02-22 23:10:00,19.6,17.9,29.79,West,262,1.0,1.0,93,0.00,,,0.00,Wunderground v.1.15,2013-02-23 05:10:00,
2013-02-22 23:15:00,19.5,17.8,29.78,WSW,252,1.0,2.0,93,0.00,,,0.00,Wunderground v.1.15,2013-02-23 05:15:00,
2013-02-22 23:20:00,19.4,17.7,29.78,West,267,1.0,1.0,93,0.00,,,0.00,Wunderground v.1.15,2013-02-23 05:20:00,
2013-02-22 23:25:00,19.3,17.6,29.78,West,259,1.0,1.0,93,0.00,,,0.00,Wunderground v.1.15,2013-02-23 05:25:00,
2013-02-22 23:30:00,19.3,17.6,29.78,WSW,255,1.0,1.0,93,0.00,,,0.00,Wunderground v.1.15,2013-02-23 05:30:00,
2013-02-22 23:35:00,19.1,17.4,29.78,West,261,1.0,1.0,93,0.00,,,0.00,Wunderground v.1.15,2013-02-23 05:35:00,
2013-02-22 23:40:00,18.9,17.0,29.78,West,260,0.0,1.0,92,0.00,,,0.00,Wunderground v.1.15,2013-02-23 05:40:00,
2013-02-22 23:46:00,18.8,16.9,29.78,WSW,256,0.0,2.0,92,0.00,,,0.00,Wunderground v.1.15,2013-02-23 05:46:00,
2013-02-22 23:51:00,18.6,16.7,29.78,WSW,255,1.0,1.0,92,0.00,,,0.00,Wunderground v.1.15,2013-02-23 05:51:00,
2013-02-22 23:56:00,18.4,16.5,29.78,WSW,250,1.0,1.0,92,0.00,,,0.00,Wunderground v.1.15,2013-02-23 05:56:00,